[Iaude] MPEC C33: 2024 BA6 [a=2.36,e=0.72,i=20.7,H=20.7]

mpec at marsden.cfa.harvard.edu mpec at marsden.cfa.harvard.edu
Fri Feb 2 20:19:51 EST 2024


M.P.E.C. 2024-C33                              Issued 2024 February 3, 01:16 UT

     The Minor Planet Electronic Circulars contain information on unusual
         minor planets, routine data on comets and natural satellites,
         and occasional editorial announcements.  They are published
    on behalf of Division F of the International Astronomical Union by the
          Minor Planet Center, Smithsonian Astrophysical Observatory,
                          Cambridge, MA 02138, U.S.A.
			  
             Prepared using the Tamkin Foundation Computer Network

                              MPC at CFA.HARVARD.EDU
            URL https://www.minorplanetcenter.net/    ISSN 1523-6714

                                    2024 BA6                                    


Observations:
     K24B06A*1C2024 01 30.53234115 28 15.672+46 33 39.60         19.67GVEC033G96
     K24B06A 1C2024 01 30.53751415 28 11.896+46 33 46.98         19.97GVEC033G96
     K24B06A 1C2024 01 30.54269015 28 08.224+46 33 54.22         19.83GVEC033G96
     K24B06A 1C2024 01 30.54787715 28 04.523+46 34 01.49               VEC033G96
     K24B06A 1C2024 01 30.55256615 28 01.222+46 34 07.97         20.32GVEC033G96
     K24B06A 1C2024 01 30.55309715 28 00.833+46 34 08.80         20.24GVEC033G96
     K24B06A 1C2024 01 30.55362815 28 00.440+46 34 09.59         20.26GVEC033G96
     K24B06A  C2024 01 30.62644815 27 10.534+46 35 52.41         20.09GVEC033F52
     K24B06A  C2024 01 30.63487115 27 04.528+46 36 04.05         20.71GVEC033F52
     K24B06A  C2024 01 30.64327515 26 58.494+46 36 16.45         20.35GVEC033F52
     K24B06A KB2024 01 31.14099 15 21 08.74 +46 46 46.2          20.2 GXEC033M45
     K24B06A KB2024 01 31.14566 15 21 05.40 +46 46 52.5          19.9 GXEC033M45
     K24B06A KB2024 01 31.15015 15 21 02.18 +46 46 58.4          20.0 GXEC033M45
     K24B06A KC2024 01 31.43343615 17 43.098+46 52 35.44         20.40GVEC033I52
     K24B06A KC2024 01 31.43441915 17 42.392+46 52 36.01         20.56GVEC033I52
     K24B06A KC2024 01 31.43540015 17 41.672+46 52 37.70         20.32GVEC033I52
     K24B06A KC2024 01 31.43636415 17 41.089+46 52 38.64         20.09GVEC033I52
     K24B06A KB2024 02 01.10772 15 09 41.96 +47 04 27.4                VEC033204
     K24B06A KB2024 02 01.12006 15 09 33.03 +47 04 40.4          20.2 GVEC033204
     K24B06A KB2024 02 01.13244 15 09 24.02 +47 04 52.9                VEC033204
     K24B06A KC2024 02 01.35867615 06 42.11 +47 08 24.3          20.5 GVEC033H21
     K24B06A KC2024 02 01.36147315 06 40.08 +47 08 27.4          20.4 GVEC033H21
     K24B06A KC2024 02 01.36427115 06 38.07 +47 08 30.1          20.2 GVEC033H21
     K24B06A KC2024 02 01.36706915 06 36.03 +47 08 32.8          19.8 GVEC033H21
     K24B06A KC2024 02 01.98708514 59 08.84 +47 16 49.7                VEC033104
     K24B06A 1C2024 02 01.99581 14 59 02.20 +47 16 54.5          20.6 VXEC033033
     K24B06A 1C2024 02 01.99633 14 59 01.77 +47 16 54.6          20.4 VXEC033033
     K24B06A KC2024 02 01.99809814 59 00.82 +47 16 58.5          20.3 GVEC033104
     K24B06A KC2024 02 02.00544114 58 55.52 +47 17 04.4          20.2 GVEC033104
     K24B06A hC2024 02 02.99037314 46 58.62 +47 26 46.8          20.1 GVEC033L01
     K24B06A hC2024 02 02.99289914 46 56.80 +47 26 48.3          20.1 GVEC033L01
     K24B06A hC2024 02 02.99542614 46 54.92 +47 26 49.8          19.9 GVEC033L01

Observer details:
033 Karl Schwarzschild Observatory, Tautenburg.  Observers S. Melnikov, C.
    Hogner, F. Ludwig, M. Hartmann, B. Stecklum.  Measurer B. Stecklum.
    1.34-m f/3 Schmidt + CCD.
104 San Marcello Pistoiese.  Observers P. Bacci, M. Maestripieri.  Measurers
    P. Bacci, L. Tesi, G. Fagioli.  0.60-m F4 Reflector + CCD.
204 Schiaparelli Observatory.  Observer L. Buzzi.  0.84-m f/3.5 reflector +
    CMO.
F52 Pan-STARRS 2, Haleakala.  Observers J. Herman, T. Lowe, P. Minguez, A.
    Schultz, I. Smith.  Measurers K. Chambers, T. de Boer, J. Fairlamb, H.
    Gao, M. Huber, C.-C. Lin, E. Magnier, Y. Ramanjooloo, R. Wainscoat, R.
    Weryk.  1.8-m Ritchey-Chretien + CCD.
G96 Mt. Lemmon Survey.  Observer D. Rankin.  Measurers T. Beuden, V. F.
    Carvajal, D. Fay, J. B. Fazekas, D. C. Fuls, A. R. Gibbs, A. D. Grauer, H.
    Groeller, J. K. Hogan, R. A. Kowalski, S. M. Larson, G. J. Leonard, D.
    Rankin, R. L. Seaman, F. C. Shelly, K. W. Wierzchos.  1.5-m reflector +
    10K CCD.
H21 Astronomical Research Observatory, Westfield.  Observer R. Holmes.
    Measurers T. Linder, R. Holmes, L. Horn.  0.76-m f/3.0 astrograph + CCD.
I52 Steward Observatory, Mt. Lemmon Station.  Observer R. A. Kowalski.
    Measurers E. C. Beshore, D. Fay, J. B. Fazekas, D. C. Fuls, A. R. Gibbs,
    A. D. Grauer, H. Groeller, J. K. Hogan, R. A. Kowalski, S. M. Larson, G.
    J. Leonard, D. Rankin, R. L. Seaman, F. C. Shelly, K. W. Wierzchos.  1.0-m
    prime focus + CCD.
L01 Visnjan Observatory, Tican.  Observer K. Korlevic.  1.0-m f/2.9 reflector
    + CCD.
M45 Starhopper Observatory, Sfantu Gheorghe.  Observer F. Ursache.  0.41-m
    f/7.5 reflector + CMO.

Orbital elements:
2024 BA6                                                 Earth MOID = 0.1312 AU
Epoch 2023 Sept. 13.0 TT = JDT 2460200.5                Veres                   
M 335.46047              (2000.0)            P               Q                  
n   0.27198083     Peri.   53.93765     +0.61960322     -0.78477774             
a   2.3592675      Node   357.61684     +0.55721965     +0.45296527             
e   0.7191877      Incl.   20.68503     +0.55280928     +0.42302052             
P   3.62           H   20.73          G   0.15           U   9                  
Residuals in seconds of arc
240130 G96  0.6+  0.2+    240131 M45  0.7+  0.0     240201 H21  0.1+  0.0
240130 G96  0.4-  0.2+    240131 M45  0.7+  0.2+    240201 H21  0.1+  0.1-
240130 G96  0.2-  0.1+    240131 I52  0.1+  0.3+    240201 104  0.3+  0.4+
240130 G96  0.3-  0.0     240131 I52  0.1+  0.3-    240201 033  0.1-  0.3-
240130 G96  0.2+  0.1-    240131 I52  0.0   0.1+    240201 033  0.7-  0.7-
240130 G96  0.1+  0.0     240131 I52  1.1+  0.1-    240201 104  0.0   0.1+
240130 G96  0.1-  0.0     240201 204  0.0   0.2+    240202 104  0.3+  0.1-
240130 F52  0.1-  0.2+    240201 204  0.3+  0.3+    240202 L01  0.1-  0.0
240130 F52  0.0   0.1-    240201 204  0.1+  0.0     240202 L01  0.3+  0.1+
240130 F52  0.4-  0.3+    240201 H21  0.2-  0.3-    240202 L01  0.0   0.2+
240131 M45  0.6+  0.4-    240201 H21  0.2-  0.1+

Ephemeris:
2024 BA6                 a,e,i = 2.36, 0.72, 21                  q = 0.6625
Date    TT    R. A. (2000) Decl.     Delta      r    Elong.  Phase     V
2024 01 04    18 49 42.7 +23 15 44   0.3705  0.7739    46.1   113.7    22.4
...
2024 01 19    17 21 24.2 +38 36 59   0.3039  0.9248    69.9    92.1    21.2
...
2024 01 27    16 07 34.6 +44 48 06   0.2873  1.0146    87.7    75.8    20.7
...
2024 02 02    14 58 57.9 +47 17 12   0.2856  1.0836   102.5    62.6    20.4
2024 02 03    14 46 50.1 +47 27 03   0.2863  1.0952   105.0    60.4    20.4
2024 02 04    14 34 38.0 +47 32 10   0.2874  1.1068   107.5    58.1    20.3
...
2024 02 10    13 23 08.0 +46 24 59   0.3013  1.1763   122.5    45.0    20.2
...
2024 02 18    12 04 59.4 +41 35 16   0.3407  1.2686   140.1    29.9    20.2
...
2024 03 04    10 43 20.0 +30 27 21   0.4752  1.4381   155.7    16.5    20.8

M. P. C. Staff               (C) Copyright 2024 MPC           M.P.E.C. 2024-C33





More information about the Iaude mailing list